Weather in Calarasi

Romania     46°29′07″N   23°51′20″E
temp.,
°C
wind,
m/s
gust,
m/s
humid.,
%
clouds,
%
prec.,
mm/h
press.,
hPa
HPBL,
m
14 may, fri
fri1400:00+11w2289100 1.1 100534
03:00+11ssw2293100 1.7 100656
06:00+9sw2392100 0.3 100647
09:00+12sw3683100 0.3 1006465
12:00+15nw2464100 0.5 10081192
15:00+15wnw126282 0.9 1009753
18:00+16wsw3459100 0.1 10091200
21:00+10nw018191 0.1 101015
15 may, sat
sat1500:00+8wnw218889 0.0 101111
03:00+7nw119019 0.0 101210
06:00+7w119034 0.0 101310
09:00+12se11785 0.0 1013307
12:00+17e216510 0.0 1011891
15:00+18sse225987 1.1 10101273
18:00+19sw115936 2.5 1009542
21:00+13wnw218074 3.6 100910
16 may, sun
sun1600:00+11wnw1186100 1.6 101010
03:00+10wsw118597 1.8 101010
06:00+9sw008889 0.0 101010
09:00+14se1180100 0.0 1010265
12:00+16sse2373100 0.3 1009503
15:00+19s6661100 1.2 10091314
18:00+14nnw4687100 1.1 1009370
21:00+12sse119457 1.6 101011
17 may, mon
mon1700:00+10sw11925 0.3 101111
03:00+9wnw11903 0.3 101110
06:00+8wnw11900 0.0 101110
09:00+13ese118422 0.0 1012349
12:00+17sse326741 0.1 10111076
15:00+19se4456100 0.1 10091178
18:00+19ssw2365100 0.3 1008436
21:00+14sw2286100 1.0 100921
18 may, tue
tue1800:00+12sw2290100 0.4 101017
03:00+11wsw22927 0.6 101023
06:00+12ssw359245 0.0 101096
09:00+14ne017872 0.6 1012337
12:00+17wsw136086 0.4 10121284
15:00+15n2272100 0.7 1011712
18:00+14se1181100 1.3 1011187
21:00+11ssw1196100 4.4 101223